NSS-9

Last updated on Thu Jul 03 2025 00:02:45 GMT+0000 (Coordinated Universal Time)

1 33749U 09008A 25183.53152184 .00000079 00000+0 00000+0 0 9995 2 33749 0.3580 84.7413 0002231 0.0065 210.4663 1.00272468 60019
UTC large
Height (km)
Speed (km/s)
/
Latitude / Longitude
Inclination (degrees)
Orbital Period (minutes)
Azimuth
Elevation
Range (km)
Doppler Factor

Next 0 passes for location: London (51.5072 / 0.1276)

Sorry there are no passes over London.